[[{"header":{"parameterUnit":"m.s-1","parameterCategory":1,"la1":30.2991,"la2":30.254,"lo1":-89.0895,"lo2":-89.0444,"dy":0.0017,"dx":0.0017,"nx":28,"ny":28,"refTime":"2023-11-22T09:00:00:Z","depth":0,"parameterNumber":2,"parameterNumberName":"U-component_of_WINDS"},"data":[0,0,0,0,0,0,0,0,0,0,0,0,0,0,0,0,0,0,0,0,0,0,0,0,0,0,0,0,0,0,0,0,0,0,0,0,0,0,0,0,0,0,0,0,0,0,0,0,0,0,0,0,0,0,0,0,0,0,1.0738,1.0738,0,1.0779,1.0779,1.078,1.0779,1.0779,1.0778,1.0778,1.0822,1.0823,1.0825,0,0,0,0,0,0,0,0,0,0,0,0,0,1.0664,1.0665,1.0738,1.0738,1.0739,1.0779,1.0779,1.078,1.0779,1.0779,1.0778,1.0777,1.0821,1.0823,1.0825,0,0,0,0,0,0,0,0,0,0,0,0,0,1.07,1.0666,1.0738,1.0743,1.0744,1.0779,1.0779,1.078,1.0779,1.0779,1.0778,1.0777,1.0821,1.0823,1.0826,1.0858,0,0,1.0833,1.0834,0,0,0,0,0,0,0,0,1.0698,1.0702,1.0742,1.0743,1.0744,1.0773,1.0769,1.0806,1.078,1.0766,1.0778,1.0777,1.0806,1.081,1.082,1.086,1.0862,1.0834,1.0835,1.0836,1.0837,0,0,0,0,0,0,0,1.0695,1.0701,1.0754,1.0743,1.0744,1.0745,1.0749,1.0776,1.0791,1.0767,1.0767,1.0772,1.0807,1.0817,1.0821,1.0862,1.0833,1.0836,1.0837,1.0838,1.0933,1.0934,0,0,0,0,0,0,1.0691,1.0698,1.0753,1.0755,1.0718,1.0747,1.0752,1.0765,1.079,1.0793,1.0773,1.0772,1.0813,1.0818,1.0822,1.0862,1.0836,1.0839,1.084,1.0932,1.0934,1.0935,0,0,0,0,0,0,1.0689,1.0696,1.0751,1.0727,1.0734,1.0749,1.0764,1.0766,1.0776,1.0794,1.0797,1.078,1.0813,1.0819,1.0849,1.0864,1.084,1.0842,1.0931,1.0933,1.0934,1.0942,0,0,0,0,0,0,1.0687,1.0695,1.0706,1.0727,1.0735,1.0776,1.0765,1.0767,1.078,1.0779,1.0802,1.0805,1.0813,1.0845,1.0852,1.0867,1.0844,1.093,1.0932,1.0934,1.0941,1.0944,1.0946,0,0,0,0,0,1.0685,1.0707,1.0707,1.0713,1.0749,1.0777,1.0782,1.0789,1.0781,1.0793,1.0806,1.0804,1.0862,1.0849,1.0856,1.0872,1.0929,1.0931,1.0934,1.0939,1.0943,1.0946,0,0,0,0,0,0,1.0687,1.071,1.071,1.0739,1.0756,1.0777,1.0792,1.0793,1.0812,1.0811,1.082,1.0826,1.0856,1.0867,1.0852,1.0905,1.0895,1.0898,1.0896,1.09,1.0903,1.0899,1.0846,0,0,0,0,0,1.0692,1.0711,1.073,1.0754,1.0763,1.0776,1.0788,1.0793,1.0811,1.0818,1.0832,1.0851,1.0873,1.0888,1.0909,1.0943,1.0949,1.0958,1.0961,1.0963,1.0966,1.0986,1.0991,1.0942,1.0942,1.0942,0,0,1.07,1.0715,1.0726,1.0755,1.0769,1.079,1.0782,1.0804,1.082,1.0822,1.0851,1.0863,1.0885,1.0917,1.0932,1.0927,1.0981,1.0966,1.0968,1.0969,1.0989,1.0994,1.0998,1.0944,1.0943,1.0943,0,0,1.0726,1.0739,1.0761,1.0775,1.0796,1.0805,1.0811,1.0832,1.0839,1.0869,1.0871,1.0892,1.093,1.0945,1.0958,1.0994,1.0994,1.1001,1.1015,1.1035,1.1039,1.1042,1.1056,1.106,1.1004,1.1004,1.1004,0,1.0734,1.0765,1.0773,1.0795,1.0809,1.0811,1.0835,1.0849,1.0876,1.0886,1.088,1.0929,1.0944,1.0981,1.099,1.1,1.1008,1.0997,1.1038,1.1041,1.1045,1.1057,1.1062,1.1005,1.1005,1.1005,1.1005,0,1.0774,1.0796,1.0811,1.0837,1.0852,1.0875,1.0888,1.0904,1.0908,1.0918,1.095,1.0968,1.0994,1.1004,1.1008,1.1042,1.1039,1.1035,1.1024,1.105,1.1062,1.1067,1.1006,1.1005,1.1005,1.1005,0,0,1.08,1.0832,1.0837,1.085,1.0874,1.0892,1.0916,1.0941,1.0954,1.0974,1.0996,1.1029,1.1027,1.1042,1.1048,1.1066,1.1094,1.1061,1.1061,1.1066,1.1134,1.1136,1.1141,1.1095,1.1096,1.1097,1.1132,0,1.0828,1.087,1.0879,1.0916,1.0937,1.0941,1.0963,1.0981,1.0993,1.1014,1.1027,1.105,1.1045,1.1055,1.1072,1.1087,1.1108,1.1085,1.1116,1.1117,1.1109,1.1147,1.1149,1.1181,1.1137,1.1138,1.1139,0,1.0866,1.0886,1.0925,1.0948,1.0957,1.0976,1.1001,1.1021,1.1043,1.105,1.1068,1.1074,1.1101,1.1091,1.113,1.1114,1.1128,1.1138,1.1139,1.1141,1.1128,1.115,1.1191,1.1196,1.1146,1.1145,1.1145,0,1.0881,1.0919,1.0947,1.0957,1.0985,1.0999,1.1012,1.1033,1.1048,1.1071,1.1081,1.1107,1.1121,1.1142,1.1155,1.1146,1.1194,1.1184,1.1201,1.1201,1.121,1.1209,1.1253,1.122,1.122,1.122,1.122,0,1.0911,1.0934,1.0954,1.0971,1.0998,1.101,1.1037,1.105,1.107,1.1091,1.1098,1.1118,1.1134,1.1158,1.1169,1.12,1.1207,1.1214,1.1217,1.1213,1.1212,1.1221,1.1219,1.1221,1.1221,1.1221,1.1221,0,1.0932,1.0945,1.0976,1.1001,1.1008,1.1027,1.1049,1.1067,1.108,1.1107,1.1114,1.1134,1.1162,1.1178,1.1213,1.1221,1.1255,1.1257,1.1247,1.1248,1.1265,1.1263,1.1316,1.1324,1.1287,1.1287,1.1287,0,1.0949,1.0967,1.0994,1.1008,1.1021,1.1044,1.106,1.1074,1.109,1.1118,1.1133,1.1161,1.1184,1.1229,1.1248,1.1275,1.1278,1.1295,1.1282,1.1278,1.1278,1.1276,1.1279,1.1296,1.1296,1.1297,1.1297,0,1.0979,1.0985,1.1007,1.1032,1.105,1.1071,1.1091,1.1103,1.1121,1.1139,1.1167,1.1185,1.1222,1.125,1.128,1.1295,1.13,1.1301,1.1307,1.1302,1.1296,1.13,1.1253,1.1299,1.1299,1.1299,1.1299,1.1299,1.0998,1.1015,1.1037,1.1061,1.1078,1.1098,1.1116,1.1132,1.1155,1.1185,1.1193,1.1223,1.1247,1.1288,1.1304,1.1329,1.1326,1.1334,1.1336,1.1337,1.1338,1.1293,1.1334,1.1334,1.1334,1.1334,1.1334,0,1.1028,1.1043,1.1065,1.1094,1.1114,1.1116,1.114,1.1157,1.1183,1.1205,1.1228,1.1262,1.129,1.1312,1.1342,1.1358,1.1361,1.1365,1.1363,1.1367,1.1339,1.1331,1.1362,1.1362,1.1362,1.1362,1.1362,1.1362,1.1045,1.1074,1.1084,1.1122,1.1138,1.1166,1.1179,1.1198,1.1216,1.1253,1.1276,1.1291,1.1314,1.1345,1.1372,1.1378,1.1389,1.1393,1.1399,1.1372,1.1369,1.1366,1.1358,1.1395,1.1395,1.1426,1.1426,1.1426]},{"header":{"parameterUnit":"m.s-1","parameterCategory":1,"la1":30.2991,"la2":30.254,"lo1":-89.0895,"lo2":-89.0444,"dy":0.0017,"dx":0.0017,"nx":28,"ny":28,"refTime":"2023-11-22T09:00:00:Z","depth":0,"parameterNumber":3,"parameterNumberName":"V-component_of_WINDS"},"data":[0,0,0,0,0,0,0,0,0,0,0,0,0,0,0,0,0,0,0,0,0,0,0,0,0,0,0,0,0,0,0,0,0,0,0,0,0,0,0,0,0,0,0,0,0,0,0,0,0,0,0,0,0,0,0,0,0,0,0.2205,0.2206,0,0.2325,0.2327,0.2328,0.2366,0.2365,0.2364,0.2364,0.2483,0.2487,0.249,0,0,0,0,0,0,0,0,0,0,0,0,0,0.1999,0.2003,0.2204,0.2206,0.2208,0.2325,0.2327,0.2328,0.2366,0.2365,0.2364,0.2364,0.2482,0.2486,0.2491,0,0,0,0,0,0,0,0,0,0,0,0,0,0.2101,0.2004,0.2204,0.224,0.2245,0.2325,0.2327,0.2329,0.2366,0.2365,0.2364,0.2363,0.248,0.2486,0.2491,0.2542,0,0,0.2508,0.2511,0,0,0,0,0,0,0,0,0.2095,0.2108,0.2234,0.2238,0.2243,0.233,0.2298,0.24,0.2366,0.232,0.2364,0.2363,0.2432,0.2442,0.2466,0.2548,0.2553,0.2509,0.2512,0.2514,0.2516,0,0,0,0,0,0,0,0.2088,0.2103,0.2252,0.2235,0.2241,0.2248,0.2262,0.2318,0.2379,0.2324,0.2327,0.2341,0.2435,0.2461,0.2469,0.2555,0.2508,0.2513,0.2517,0.2519,0.2681,0.2682,0,0,0,0,0,0,0.2076,0.2097,0.2248,0.2256,0.2166,0.2253,0.2268,0.2303,0.2379,0.239,0.2341,0.2342,0.2452,0.2463,0.2473,0.2538,0.2514,0.252,0.2523,0.268,0.2682,0.2683,0,0,0,0,0,0,0.2071,0.2089,0.2243,0.2177,0.2198,0.2257,0.2296,0.2305,0.2332,0.2392,0.2403,0.2357,0.2451,0.2466,0.2525,0.2543,0.2522,0.2527,0.2679,0.2681,0.2682,0.2667,0,0,0,0,0,0,0.2065,0.2087,0.2109,0.2178,0.2201,0.2295,0.2297,0.2308,0.2342,0.2344,0.241,0.242,0.2452,0.2516,0.253,0.255,0.2531,0.2678,0.268,0.2682,0.2666,0.2668,0.2669,0,0,0,0,0,0.2058,0.21,0.211,0.2128,0.223,0.2296,0.2309,0.2347,0.2343,0.2365,0.2402,0.2418,0.2537,0.2522,0.2538,0.256,0.2677,0.2679,0.2682,0.2666,0.2668,0.2669,0,0,0,0,0,0,0.2031,0.211,0.2122,0.2188,0.2235,0.2302,0.2331,0.2348,0.2396,0.2396,0.2438,0.2453,0.2508,0.2539,0.252,0.2611,0.2608,0.2613,0.259,0.2592,0.2594,0.2586,0.2536,0,0,0,0,0,0.2033,0.2082,0.2147,0.2198,0.2221,0.2272,0.2302,0.2326,0.2376,0.2396,0.2439,0.2485,0.2533,0.2564,0.2611,0.2669,0.2684,0.2692,0.2693,0.2694,0.2699,0.273,0.2734,0.269,0.269,0.269,0,0,0.2038,0.2086,0.2114,0.2194,0.2234,0.2281,0.2288,0.2339,0.2374,0.2403,0.2463,0.2494,0.2548,0.2607,0.2635,0.2634,0.2714,0.2697,0.2697,0.2702,0.2733,0.2737,0.2741,0.2692,0.2691,0.2691,0,0,0.2071,0.2112,0.216,0.2199,0.2258,0.2291,0.2301,0.2366,0.2389,0.2448,0.247,0.2511,0.2593,0.263,0.266,0.2701,0.2717,0.2715,0.2724,0.2754,0.2757,0.2761,0.2776,0.278,0.2719,0.2719,0.2719,0,0.2069,0.2144,0.2182,0.2231,0.2264,0.2292,0.2339,0.2374,0.2445,0.2466,0.2465,0.2567,0.2605,0.2672,0.2682,0.2705,0.2717,0.271,0.2754,0.2758,0.2761,0.2776,0.2781,0.2719,0.2719,0.2719,0.2719,0,0.2138,0.2188,0.2219,0.2288,0.2324,0.2372,0.2414,0.2446,0.2465,0.2497,0.2555,0.2601,0.2658,0.2675,0.2694,0.2743,0.2741,0.2746,0.2744,0.2765,0.2779,0.2785,0.2718,0.2718,0.2719,0.2719,0,0,0.2163,0.2249,0.226,0.2291,0.2356,0.2395,0.2441,0.2497,0.2523,0.2569,0.2609,0.2675,0.2679,0.2713,0.2736,0.2762,0.2791,0.2763,0.2765,0.2767,0.2846,0.2844,0.285,0.28,0.2801,0.2802,0.2842,0,0.2205,0.2293,0.2326,0.2397,0.2443,0.2467,0.2508,0.255,0.258,0.2621,0.2652,0.2699,0.2701,0.2721,0.2747,0.2782,0.2807,0.2779,0.2836,0.2837,0.2824,0.2858,0.2856,0.2892,0.2848,0.2849,0.285,0,0.2268,0.2316,0.2391,0.2449,0.2469,0.2505,0.2558,0.2597,0.2644,0.2663,0.2699,0.2719,0.2766,0.2757,0.2821,0.2801,0.2825,0.2845,0.2847,0.2856,0.2847,0.2868,0.2905,0.2911,0.2859,0.2858,0.2857,0,0.228,0.2362,0.2418,0.2443,0.2511,0.2535,0.2564,0.2611,0.2641,0.2685,0.2705,0.2753,0.278,0.2816,0.2848,0.2839,0.2908,0.2903,0.2925,0.2924,0.2941,0.294,0.2983,0.2953,0.2953,0.2953,0.2952,0,0.2326,0.2371,0.2424,0.2458,0.2508,0.2543,0.2591,0.2621,0.2661,0.27,0.2722,0.2757,0.2796,0.2835,0.286,0.2908,0.292,0.2935,0.2942,0.2935,0.2933,0.2954,0.2952,0.2954,0.2954,0.2953,0.2953,0,0.2349,0.2386,0.2449,0.2506,0.2522,0.2556,0.2605,0.2637,0.2665,0.2713,0.2726,0.277,0.2817,0.2852,0.2912,0.2928,0.298,0.2986,0.2965,0.2969,0.2989,0.2987,0.3049,0.3058,0.3019,0.302,0.302,0,0.2378,0.2413,0.2474,0.2502,0.2531,0.2576,0.2606,0.264,0.2671,0.2725,0.275,0.2799,0.284,0.2913,0.2949,0.2994,0.3002,0.302,0.3009,0.3,0.3003,0.3002,0.3005,0.3023,0.3023,0.3023,0.3023,0,0.2424,0.244,0.2484,0.2534,0.257,0.2611,0.2652,0.2673,0.2713,0.2746,0.2794,0.2826,0.2886,0.2934,0.2982,0.3009,0.3022,0.3026,0.3033,0.3028,0.3015,0.3023,0.2971,0.3025,0.3025,0.3025,0.3025,0.3025,0.2452,0.2484,0.2531,0.2579,0.2613,0.2649,0.2683,0.2714,0.2756,0.2809,0.2825,0.2875,0.2916,0.2983,0.3009,0.3047,0.3047,0.3057,0.3061,0.3063,0.3063,0.3007,0.3056,0.3056,0.3056,0.3056,0.3055,0,0.2501,0.2531,0.2575,0.2631,0.2667,0.2676,0.272,0.275,0.2794,0.2832,0.2872,0.2925,0.297,0.3008,0.3053,0.3076,0.3083,0.3087,0.3087,0.3092,0.3061,0.305,0.308,0.308,0.308,0.308,0.308,0.308,0.2531,0.2585,0.2605,0.2674,0.2703,0.2754,0.2778,0.2811,0.2842,0.2901,0.2939,0.2963,0.3,0.3048,0.3088,0.3097,0.3113,0.3116,0.3127,0.3098,0.3095,0.3092,0.3083,0.3119,0.3119,0.3156,0.3156,0.3156]}]]